| time (UTC) | temp F | wind direction | speed MPH | gust MPH | rain 1hr in | rain 24hr in | rain mn in | humidity % | barometer mb |
| 20260503054521 | 54 | 183 | 3.0 | 7.0 | 0.00 | 0.01 | 0.01 | 66 | 1014.0 |
| 20260503053013 | 55 | 6 | 2.0 | 9.0 | 0.00 | 0.01 | 0.01 | 63 | 1013.7 |
| 20260503051509 | 55 | 12 | 7.0 | 14.0 | 0.00 | 0.01 | 0.01 | 66 | 1013.5 |
| 20260503050009 | 54 | 29 | 7.0 | 11.0 | 0.00 | 0.01 | 0.01 | 69 | 1013.7 |
| 20260503044509 | 54 | 11 | 7.0 | 12.0 | 0.00 | 0.01 | 0.01 | 68 | 1013.4 |
| 20260503043003 | 55 | 27 | 7.0 | 15.0 | 0.00 | 0.01 | 0.01 | 66 | 1013.5 |
| 20260503041501 | 55 | 11 | 7.0 | 14.0 | 0.00 | 0.01 | 0.01 | 66 | 1013.5 |
| 20260503040100 | 55 | 315 | 7.0 | 14.0 | 0.00 | 0.01 | 0.01 | 67 | 1013.4 |
| 20260503034557 | 56 | 6 | 4.0 | 10.0 | 0.00 | 0.01 | 0.01 | 65 | 1013.0 |
| 20260503033054 | 57 | 303 | 3.0 | 11.0 | 0.00 | 0.01 | 0.01 | 62 | 1013.1 |
| 20260503031552 | 57 | 318 | 3.0 | 13.0 | 0.01 | 0.01 | 0.01 | 61 | 1012.8 |
| 20260503030054 | 57 | 342 | 3.0 | 8.0 | 0.01 | 0.01 | 0.01 | 65 | 1012.6 |
| 20260503024548 | 57 | 333 | 2.0 | 6.0 | 0.01 | 0.01 | 0.01 | 62 | 1012.7 |
| 20260503023047 | 58 | 31 | 4.0 | 10.0 | 0.01 | 0.01 | 0.01 | 58 | 1012.4 |
| 20260503021546 | 61 | 53 | 9.0 | 16.0 | 0.00 | 0.00 | 0.00 | 51 | 1012.4 |
| 20260503020043 | 63 | 303 | 6.0 | 14.0 | 0.00 | 0.00 | 0.00 | 41 | 1012.2 |
| 20260503014538 | 63 | 333 | 3.0 | 9.0 | 0.00 | 0.00 | 0.00 | 40 | 1012.0 |
| 20260503013039 | 65 | 268 | 0.0 | 4.0 | 0.00 | 0.00 | 0.00 | 38 | 1011.9 |
| 20260503011546 | 64 | 97 | 3.0 | 11.0 | 0.00 | 0.00 | 0.00 | 38 | 1011.8 |
| 20260503010038 | 64 | 90 | 5.0 | 13.0 | 0.00 | 0.00 | 0.00 | 39 | 1011.9 |
| 20260503004530 | 64 | 72 | 4.0 | 13.0 | 0.00 | 0.00 | 0.00 | 41 | 1012.0 |
| 20260503003028 | 63 | 64 | 6.0 | 18.0 | 0.00 | 0.00 | 0.00 | 42 | 1012.0 |
| 20260503001528 | 65 | 72 | 2.0 | 11.0 | 0.00 | 0.00 | 0.00 | 42 | 1012.1 |
| 20260503000040 | 67 | 107 | 0.0 | 5.0 | 0.00 | 0.00 | 0.00 | 33 | 1011.9 |
| 20260502234523 | 66 | 107 | 0.0 | 4.0 | 0.00 | 0.00 | 0.00 | 34 | 1011.8 |
| 20260502233020 | 68 | 89 | 2.0 | 6.0 | 0.00 | 0.00 | 0.00 | 32 | 1012.1 |
| 20260502231519 | 69 | 163 | 1.0 | 7.0 | 0.00 | 0.00 | 0.00 | 29 | 1011.9 |
| 20260502230015 | 69 | 160 | 2.0 | 8.0 | 0.00 | 0.00 | 0.00 | 28 | 1012.0 |
| 20260502224511 | 69 | 65 | 5.0 | 15.0 | 0.00 | 0.00 | 0.00 | 29 | 1012.0 |
| 20260502223024 | 72 | 280 | 4.0 | 9.0 | 0.00 | 0.00 | 0.00 | 28 | 1012.1 |
| 20260502221505 | 71 | 188 | 4.0 | 9.0 | 0.00 | 0.00 | 0.00 | 29 | 1012.3 |
| 20260502220004 | 71 | 222 | 1.0 | 7.0 | 0.00 | 0.00 | 0.00 | 29 | 1012.5 |
| 20260502214503 | 71 | 122 | 2.0 | 4.0 | 0.00 | 0.00 | 0.00 | 29 | 1012.6 |
| 20260502213059 | 71 | 146 | 1.0 | 6.0 | 0.00 | 0.00 | 0.00 | 29 | 1012.7 |
| 20260502211555 | 71 | 160 | 0.0 | 5.0 | 0.00 | 0.00 | 0.00 | 28 | 1012.9 |
| 20260502210108 | 71 | 214 | 0.0 | 6.0 | 0.00 | 0.00 | 0.00 | 28 | 1013.1 |
| 20260502204550 | 71 | 250 | 1.0 | 7.0 | 0.00 | 0.00 | 0.00 | 28 | 1013.2 |
| 20260502203044 | 71 | 240 | 2.0 | 5.0 | 0.00 | 0.00 | 0.00 | 28 | 1013.2 |
| 20260502201546 | 70 | 121 | 2.0 | 5.0 | 0.00 | 0.00 | 0.00 | 28 | 1013.3 |
| 20260502200053 | 69 | 244 | 0.0 | 4.0 | 0.00 | 0.00 | 0.00 | 31 | 1013.5 |
| 20260502194539 | 69 | 219 | 1.0 | 5.0 | 0.00 | 0.00 | 0.00 | 28 | 1013.6 |
| 20260502193039 | 69 | 222 | 0.0 | 3.0 | 0.00 | 0.00 | 0.00 | 28 | 1013.7 |
| 20260502191530 | 68 | 262 | 2.0 | 5.0 | 0.00 | 0.00 | 0.00 | 29 | 1014.0 |
| 20260502190040 | 69 | 246 | 3.0 | 6.0 | 0.00 | 0.00 | 0.00 | 28 | 1014.1 |
| 20260502184525 | 70 | 230 | 1.0 | 7.0 | 0.00 | 0.00 | 0.00 | 28 | 1014.2 |
| 20260502183020 | 68 | 214 | 2.0 | 7.0 | 0.00 | 0.00 | 0.00 | 32 | 1014.4 |
| 20260502181516 | 67 | 118 | 2.0 | 6.0 | 0.00 | 0.00 | 0.00 | 32 | 1014.6 |
| 20260502170106 | 62 | 207 | 1.0 | 5.0 | 0.00 | 0.00 | 0.00 | 45 | 1015.0 |
| 20260502163057 | 61 | 280 | 1.0 | 3.0 | 0.00 | 0.00 | 0.00 | 43 | 1015.1 |
| 20260502161549 | 61 | 163 | 0.0 | 1.0 | 0.00 | 0.00 | 0.00 | 42 | 1015.2 |
| 20260502151555 | 53 | 25 | 0.0 | 1.0 | 0.00 | 0.00 | 0.00 | 50 | 1015.1 |
| 20260502123001 | 47 | 321 | 0.0 | 0.0 | 0.00 | 0.00 | 0.00 | 55 | 1014.1 |
| 20260502121559 | 47 | 51 | 0.0 | 0.0 | 0.00 | 0.00 | 0.00 | 51 | 1014.0 |
| 20260502114555 | 47 | 41 | 0.0 | 1.0 | 0.00 | 0.00 | 0.00 | 50 | 1014.2 |
| 20260502113054 | 48 | 41 | 0.0 | 1.0 | 0.00 | 0.00 | 0.00 | 49 | 1014.3 |
| 20260502111550 | 49 | 40 | 0.0 | 3.0 | 0.00 | 0.00 | 0.00 | 49 | 1014.4 |
| 20260502110057 | 50 | 113 | 0.0 | 1.0 | 0.00 | 0.00 | 0.00 | 49 | 1014.2 |
| 20260502104544 | 49 | 92 | 0.0 | 0.0 | 0.00 | 0.00 | 0.00 | 49 | 1014.1 |
| 20260502103042 | 49 | 91 | 0.0 | 1.0 | 0.00 | 0.00 | 0.00 | 48 | 1014.1 |
| 20260502101538 | 49 | 91 | 0.0 | 1.0 | 0.00 | 0.00 | 0.00 | 48 | 1014.1 |
| 20260502091526 | 49 | 113 | 0.0 | 0.0 | 0.00 | 0.00 | 0.00 | 50 | 1014.3 |
| 20260502070105 | 54 | 115 | 0.0 | 1.0 | 0.00 | 0.00 | 0.00 | 40 | 1015.0 |
| 20260502064559 | 55 | 115 | 0.0 | 2.0 | 0.00 | 0.00 | 0.00 | 39 | 1014.9 |
| 20260502063051 | 56 | 122 | 0.0 | 3.0 | 0.00 | 0.00 | 0.00 | 37 | 1014.8 |
| 20260502061545 | 56 | 117 | 0.0 | 2.0 | 0.00 | 0.00 | 0.00 | 34 | 1014.9 |